Data supplied by UK-AIR on 8/11/2015
All Data GMT hour ending 
Status: R =Ratified P=Provisional,P*=As supplied
,,Exeter Roadside,,,,,,,,,,,,,,,,,,,,,,,
Date,time,"Nitric oxide",status,unit,"Nitrogen dioxide",status,unit,"Nitrogen oxides as nitrogen dioxide",status,unit,"Ozone",status,unit
 
01-01-2014,01:00,1.52732,R,ugm-3,9.17570,R,ugm-3,11.51755,R,ugm-3,46.99874,R,ugm-3
01-01-2014,02:00,2.58482,R,ugm-3,10.07378,R,ugm-3,14.03711,R,ugm-3,46.10067,R,ugm-3
01-01-2014,03:00,2.17373,R,ugm-3,6.92516,R,ugm-3,10.25817,R,ugm-3,50.84046,R,ugm-3
01-01-2014,04:00,1.43938,R,ugm-3,5.30623,R,ugm-3,7.51326,R,ugm-3,54.33293,R,ugm-3
01-01-2014,05:00,0.58748,R,ugm-3,2.74300,R,ugm-3,3.64379,R,ugm-3,65.10971,R,ugm-3
01-01-2014,06:00,1.38076,R,ugm-3,3.95648,R,ugm-3,6.07362,R,ugm-3,69.15101,R,ugm-3
01-01-2014,07:00,0.73466,R,ugm-3,2.74300,R,ugm-3,3.86947,R,ugm-3,72.04477,R,ugm-3
01-01-2014,08:00,1.29252,R,ugm-3,3.46210,R,ugm-3,5.44393,R,ugm-3,72.64348,R,ugm-3
01-01-2014,09:00,0.96915,R,ugm-3,5.57828,R,ugm-3,7.06430,R,ugm-3,69.64993,R,ugm-3
01-01-2014,10:00,1.70381,R,ugm-3,6.92564,R,ugm-3,9.53812,R,ugm-3,67.70412,R,ugm-3
01-01-2014,11:00,2.11511,R,ugm-3,7.73463,R,ugm-3,10.97775,R,ugm-3,66.55660,R,ugm-3
01-01-2014,12:00,2.34991,R,ugm-3,9.12932,R,ugm-3,12.73247,R,ugm-3,67.35488,R,ugm-3
01-01-2014,13:00,2.49678,R,ugm-3,9.75853,R,ugm-3,13.58688,R,ugm-3,67.40477,R,ugm-3
01-01-2014,14:00,2.14411,R,ugm-3,9.04039,R,ugm-3,12.32798,R,ugm-3,65.55875,R,ugm-3
01-01-2014,15:00,1.70350,R,ugm-3,8.77073,R,ugm-3,11.38272,R,ugm-3,65.30928,R,ugm-3
01-01-2014,16:00,0.94015,R,ugm-3,5.80253,R,ugm-3,7.24407,R,ugm-3,66.00778,R,ugm-3
01-01-2014,17:00,0.79297,R,ugm-3,5.89289,R,ugm-3,7.10876,R,ugm-3,62.76477,R,ugm-3
01-01-2014,18:00,0.99878,R,ugm-3,6.07171,R,ugm-3,7.60314,R,ugm-3,57.32648,R,ugm-3
01-01-2014,19:00,0.58748,R,ugm-3,4.58809,R,ugm-3,5.48888,R,ugm-3,49.04433,R,ugm-3
01-01-2014,20:00,0.73435,R,ugm-3,5.93736,R,ugm-3,7.06334,R,ugm-3,45.55185,R,ugm-3
01-01-2014,21:00,0.41130,R,ugm-3,3.32871,R,ugm-3,3.95935,R,ugm-3,47.04863,R,ugm-3
01-01-2014,22:00,0.44092,R,ugm-3,3.68826,R,ugm-3,4.36433,R,ugm-3,49.69293,R,ugm-3
01-01-2014,23:00,0.49954,R,ugm-3,4.00334,R,ugm-3,4.76930,R,ugm-3,49.34368,R,ugm-3
01-01-2014,24:00,0.17618,R,ugm-3,1.43963,R,ugm-3,1.70978,R,ugm-3,52.93594,R,ugm-3
02-01-2014,01:00,0.32305,R,ugm-3,2.11666,R,ugm-3,2.61200,R,ugm-3,53.38498,R,ugm-3
02-01-2014,02:00,0.35205,R,ugm-3,1.98278,R,ugm-3,2.52259,R,ugm-3,55.28089,R,ugm-3
02-01-2014,03:00,0.52886,R,ugm-3,3.55773,R,ugm-3,4.36863,R,ugm-3,56.42842,R,ugm-3
02-01-2014,04:00,10.63323,R,ugm-3,9.50321,R,ugm-3,25.80728,R,ugm-3,51.13981,R,ugm-3
02-01-2014,05:00,19.09305,R,ugm-3,22.87972,R,ugm-3,52.15531,R,ugm-3,43.60605,R,ugm-3
02-01-2014,06:00,48.40803,R,ugm-3,53.77711,R,ugm-3,128.00171,R,ugm-3,21.05464,R,ugm-3
02-01-2014,07:00,40.97661,R,ugm-3,50.89449,R,ugm-3,113.72442,R,ugm-3,21.00474,R,ugm-3
02-01-2014,08:00,16.53764,R,ugm-3,33.28372,R,ugm-3,58.64108,R,ugm-3,26.84217,R,ugm-3
02-01-2014,09:00,18.30007,R,ugm-3,36.30164,R,ugm-3,64.36136,R,ugm-3,26.04389,R,ugm-3
02-01-2014,10:00,21.88357,R,ugm-3,36.97723,R,ugm-3,70.53157,R,ugm-3,28.28905,R,ugm-3
02-01-2014,11:00,18.91718,R,ugm-3,32.02242,R,ugm-3,61.02835,R,ugm-3,31.38238,R,ugm-3
02-01-2014,12:00,14.18741,R,ugm-3,31.34779,R,ugm-3,53.10152,R,ugm-3,32.77937,R,ugm-3
02-01-2014,13:00,20.03320,R,ugm-3,39.09389,R,ugm-3,69.81103,R,ugm-3,26.89206,R,ugm-3
02-01-2014,14:00,22.97059,R,ugm-3,43.68819,R,ugm-3,78.90927,R,ugm-3,21.25421,R,ugm-3
02-01-2014,15:00,12.77765,R,ugm-3,31.07717,R,ugm-3,50.66930,R,ugm-3,29.68604,R,ugm-3
02-01-2014,16:00,10.75048,R,ugm-3,23.69109,R,ugm-3,40.17493,R,ugm-3,35.02454,R,ugm-3
02-01-2014,17:00,5.49280,R,ugm-3,15.26892,R,ugm-3,23.69109,R,ugm-3,42.35873,R,ugm-3
02-01-2014,18:00,2.34991,R,ugm-3,8.64737,R,ugm-3,12.25052,R,ugm-3,47.94669,R,ugm-3
02-01-2014,19:00,3.43694,R,ugm-3,9.27802,R,ugm-3,14.54791,R,ugm-3,50.04218,R,ugm-3
02-01-2014,20:00,1.40976,R,ugm-3,5.99091,R,ugm-3,8.15251,R,ugm-3,58.22455,R,ugm-3
02-01-2014,21:00,1.55694,R,ugm-3,5.35978,R,ugm-3,7.74706,R,ugm-3,61.21810,R,ugm-3
02-01-2014,22:00,2.29129,R,ugm-3,5.35978,R,ugm-3,8.87304,R,ugm-3,53.93379,R,ugm-3
02-01-2014,23:00,0.55848,R,ugm-3,2.38680,R,ugm-3,3.24312,R,ugm-3,51.58885,R,ugm-3
02-01-2014,24:00,0.17618,R,ugm-3,0.76596,R,ugm-3,1.03610,R,ugm-3,55.53035,R,ugm-3
03-01-2014,01:00,0.03908,R,ugm-3,1.02064,R,ugm-3,1.08056,R,ugm-3,57.57595,R,ugm-3
03-01-2014,02:00,0.26412,R,ugm-3,,,,,,,59.57165,R,ugm-3
03-01-2014,03:00,0.38199,R,ugm-3,1.71121,R,ugm-3,2.29691,R,ugm-3,64.46111,R,ugm-3
03-01-2014,04:00,1.05771,R,ugm-3,3.19722,R,ugm-3,4.81902,R,ugm-3,66.00778,R,ugm-3
03-01-2014,05:00,3.43662,R,ugm-3,9.09776,R,ugm-3,14.36718,R,ugm-3,53.33508,R,ugm-3
03-01-2014,06:00,4.81738,R,ugm-3,12.16015,R,ugm-3,19.54671,R,ugm-3,52.48691,R,ugm-3
03-01-2014,07:00,7.37310,R,ugm-3,18.82617,R,ugm-3,30.13144,R,ugm-3,48.74497,R,ugm-3
03-01-2014,08:00,8.92973,R,ugm-3,14.18740,R,ugm-3,27.87947,R,ugm-3,58.97294,R,ugm-3
03-01-2014,09:00,14.80452,R,ugm-3,28.73531,R,ugm-3,51.43525,R,ugm-3,51.13981,R,ugm-3
03-01-2014,10:00,11.92575,R,ugm-3,24.59140,R,ugm-3,42.87729,R,ugm-3,55.08132,R,ugm-3
03-01-2014,11:00,12.21949,R,ugm-3,22.20413,R,ugm-3,40.94041,R,ugm-3,57.92519,R,ugm-3
03-01-2014,12:00,9.92851,R,ugm-3,19.23114,R,ugm-3,34.45464,R,ugm-3,53.78412,R,ugm-3
03-01-2014,13:00,13.89399,R,ugm-3,22.51969,R,ugm-3,43.82350,R,ugm-3,52.18756,R,ugm-3
03-01-2014,14:00,7.16730,R,ugm-3,15.58401,R,ugm-3,26.57371,R,ugm-3,52.63659,R,ugm-3
03-01-2014,15:00,9.45859,R,ugm-3,17.56536,R,ugm-3,32.06832,R,ugm-3,52.33723,R,ugm-3
03-01-2014,16:00,4.08304,R,ugm-3,12.25052,R,ugm-3,18.51109,R,ugm-3,58.92304,R,ugm-3
03-01-2014,17:00,4.14166,R,ugm-3,10.04397,R,ugm-3,16.39443,R,ugm-3,60.51960,R,ugm-3
03-01-2014,18:00,2.37954,R,ugm-3,7.56681,R,ugm-3,11.21538,R,ugm-3,58.77337,R,ugm-3
03-01-2014,19:00,1.61557,R,ugm-3,5.99043,R,ugm-3,8.46759,R,ugm-3,55.63014,R,ugm-3
03-01-2014,20:00,0.96946,R,ugm-3,5.22399,R,ugm-3,6.71048,R,ugm-3,55.38068,R,ugm-3
03-01-2014,21:00,0.82228,R,ugm-3,4.81950,R,ugm-3,6.08032,R,ugm-3,55.33078,R,ugm-3
03-01-2014,22:00,0.70473,R,ugm-3,4.63925,R,ugm-3,5.71981,R,ugm-3,54.33293,R,ugm-3
03-01-2014,23:00,1.29252,R,ugm-3,7.70164,R,ugm-3,9.68347,R,ugm-3,51.13981,R,ugm-3
03-01-2014,24:00,2.11511,R,ugm-3,7.61127,R,ugm-3,10.85439,R,ugm-3,53.38498,R,ugm-3
04-01-2014,01:00,2.52641,R,ugm-3,9.14271,R,ugm-3,13.01648,R,ugm-3,56.57810,R,ugm-3
04-01-2014,02:00,5.75712,R,ugm-3,15.61365,R,ugm-3,24.44111,R,ugm-3,52.61996,R,ugm-3
04-01-2014,03:00,2.11480,R,ugm-3,11.62035,R,ugm-3,14.86299,R,ugm-3,54.43272,R,ugm-3
04-01-2014,04:00,12.13124,R,ugm-3,27.47450,R,ugm-3,46.07547,R,ugm-3,37.96819,R,ugm-3
04-01-2014,05:00,40.85905,R,ugm-3,54.90309,R,ugm-3,117.55277,R,ugm-3,13.77033,R,ugm-3
04-01-2014,06:00,104.21878,R,ugm-3,74.94514,R,ugm-3,234.74503,R,ugm-3,5.88732,R,ugm-3
04-01-2014,07:00,132.12368,R,ugm-3,85.57529,R,ugm-3,288.16211,R,ugm-3,3.74194,R,ugm-3
04-01-2014,08:00,176.53692,R,ugm-3,93.68286,R,ugm-3,364.36902,R,ugm-3,3.94151,R,ugm-3
04-01-2014,09:00,145.57737,R,ugm-3,90.57409,R,ugm-3,313.78961,R,ugm-3,4.59011,R,ugm-3
04-01-2014,10:00,60.53958,R,ugm-3,66.97336,R,ugm-3,159.79942,R,ugm-3,13.72044,R,ugm-3
04-01-2014,11:00,55.66357,R,ugm-3,71.65755,R,ugm-3,157.00717,R,ugm-3,16.61420,R,ugm-3
04-01-2014,12:00,46.91002,R,ugm-3,56.38958,R,ugm-3,128.31728,R,ugm-3,27.39098,R,ugm-3
04-01-2014,13:00,52.10908,R,ugm-3,51.25500,R,ugm-3,131.15447,R,ugm-3,39.06583,R,ugm-3
04-01-2014,14:00,42.73905,R,ugm-3,56.88492,R,ugm-3,122.41721,R,ugm-3,27.93980,R,ugm-3
04-01-2014,15:00,27.61148,R,ugm-3,46.03053,R,ugm-3,88.36754,R,ugm-3,26.79227,R,ugm-3
04-01-2014,16:00,41.76989,R,ugm-3,57.51461,R,ugm-3,121.56089,R,ugm-3,18.70969,R,ugm-3
04-01-2014,17:00,25.32081,R,ugm-3,37.42715,R,ugm-3,76.25185,R,ugm-3,28.58840,R,ugm-3
04-01-2014,18:00,17.41886,R,ugm-3,36.75203,R,ugm-3,63.46058,R,ugm-3,29.23701,R,ugm-3
04-01-2014,19:00,33.80963,R,ugm-3,56.11897,R,ugm-3,107.95967,R,ugm-3,16.36474,R,ugm-3
04-01-2014,20:00,33.48626,R,ugm-3,54.54259,R,ugm-3,105.88748,R,ugm-3,13.82022,R,ugm-3
04-01-2014,21:00,56.95608,R,ugm-3,51.88517,R,ugm-3,139.21661,R,ugm-3,9.77893,R,ugm-3
04-01-2014,22:00,34.19130,R,ugm-3,44.31884,R,ugm-3,96.74477,R,ugm-3,14.51872,R,ugm-3
04-01-2014,23:00,18.32939,R,ugm-3,28.82520,R,ugm-3,56.92987,R,ugm-3,23.20001,R,ugm-3
04-01-2014,24:00,12.60147,R,ugm-3,23.46542,R,ugm-3,42.78741,R,ugm-3,28.33894,R,ugm-3
05-01-2014,01:00,11.98468,R,ugm-3,21.66384,R,ugm-3,40.04010,R,ugm-3,29.18711,R,ugm-3
05-01-2014,02:00,5.25799,R,ugm-3,22.38486,R,ugm-3,30.44700,R,ugm-3,19.95700,R,ugm-3
05-01-2014,03:00,4.37646,R,ugm-3,18.37673,R,ugm-3,25.08722,R,ugm-3,24.09808,R,ugm-3
05-01-2014,04:00,1.38076,R,ugm-3,18.91606,R,ugm-3,21.03320,R,ugm-3,21.10453,R,ugm-3
05-01-2014,05:00,8.04852,R,ugm-3,26.03295,R,ugm-3,38.37383,R,ugm-3,24.94625,R,ugm-3
05-01-2014,06:00,8.43019,R,ugm-3,30.22133,R,ugm-3,43.14743,R,ugm-3,22.25206,R,ugm-3
05-01-2014,07:00,14.30497,R,ugm-3,23.05997,R,ugm-3,44.99395,R,ugm-3,33.27830,R,ugm-3
05-01-2014,08:00,8.28363,R,ugm-3,25.17711,R,ugm-3,37.87850,R,ugm-3,34.22626,R,ugm-3
05-01-2014,09:00,6.66775,R,ugm-3,18.37626,R,ugm-3,28.60000,R,ugm-3,40.66239,R,ugm-3
05-01-2014,10:00,3.52487,R,ugm-3,10.80945,R,ugm-3,16.21418,R,ugm-3,50.09207,R,ugm-3
05-01-2014,11:00,6.43295,R,ugm-3,14.09752,R,ugm-3,23.96123,R,ugm-3,53.73422,R,ugm-3
05-01-2014,12:00,3.81861,R,ugm-3,9.72793,R,ugm-3,15.58305,R,ugm-3,61.31788,R,ugm-3
05-01-2014,13:00,4.96425,R,ugm-3,12.29546,R,ugm-3,19.90721,R,ugm-3,56.57810,R,ugm-3
05-01-2014,14:00,11.45583,R,ugm-3,18.46614,R,ugm-3,36.03150,R,ugm-3,52.73637,R,ugm-3
05-01-2014,15:00,5.49280,R,ugm-3,16.70999,R,ugm-3,25.13216,R,ugm-3,53.03573,R,ugm-3
05-01-2014,16:00,2.67296,R,ugm-3,10.26869,R,ugm-3,14.36718,R,ugm-3,60.46971,R,ugm-3
05-01-2014,17:00,2.08517,R,ugm-3,7.61271,R,ugm-3,10.80993,R,ugm-3,62.71487,R,ugm-3
05-01-2014,18:00,1.05740,R,ugm-3,4.90939,R,ugm-3,6.53071,R,ugm-3,64.61079,R,ugm-3
05-01-2014,19:00,1.02840,R,ugm-3,4.63877,R,ugm-3,6.21563,R,ugm-3,63.81251,R,ugm-3
05-01-2014,20:00,0.93984,R,ugm-3,3.82835,R,ugm-3,5.26942,R,ugm-3,65.80821,R,ugm-3
05-01-2014,21:00,0.49923,R,ugm-3,2.97250,R,ugm-3,3.73798,R,ugm-3,63.36348,R,ugm-3
05-01-2014,22:00,0.52886,R,ugm-3,1.48601,R,ugm-3,2.29691,R,ugm-3,64.96004,R,ugm-3
05-01-2014,23:00,0.64641,R,ugm-3,2.43174,R,ugm-3,3.42290,R,ugm-3,55.63014,R,ugm-3
05-01-2014,24:00,0.26412,R,ugm-3,1.39708,R,ugm-3,1.80205,R,ugm-3,50.04218,R,ugm-3
06-01-2014,01:00,0.23543,R,ugm-3,1.30528,R,ugm-3,1.66627,R,ugm-3,50.79057,R,ugm-3
06-01-2014,02:00,0.35299,R,ugm-3,1.21492,R,ugm-3,1.75615,R,ugm-3,56.72777,R,ugm-3
06-01-2014,03:00,0.35330,R,ugm-3,1.30528,R,ugm-3,1.84700,R,ugm-3,55.23100,R,ugm-3
06-01-2014,04:00,0.79422,R,ugm-3,3.28615,R,ugm-3,4.50394,R,ugm-3,49.29379,R,ugm-3
06-01-2014,05:00,2.41103,R,ugm-3,7.87854,R,ugm-3,11.57541,R,ugm-3,47.39788,R,ugm-3
06-01-2014,06:00,3.76373,R,ugm-3,9.40711,R,ugm-3,15.17808,R,ugm-3,48.24605,R,ugm-3
06-01-2014,07:00,4.91062,R,ugm-3,14.31458,R,ugm-3,21.84410,R,ugm-3,47.29809,R,ugm-3
06-01-2014,08:00,4.08740,R,ugm-3,13.27992,R,ugm-3,19.54718,R,ugm-3,45.50196,R,ugm-3
06-01-2014,09:00,5.02849,R,ugm-3,13.23259,R,ugm-3,20.94283,R,ugm-3,44.65379,R,ugm-3
06-01-2014,10:00,5.82240,R,ugm-3,14.04253,R,ugm-3,22.97008,R,ugm-3,45.15271,R,ugm-3
06-01-2014,11:00,4.14603,R,ugm-3,12.46950,R,ugm-3,18.82665,R,ugm-3,44.40433,R,ugm-3
06-01-2014,12:00,5.29292,R,ugm-3,14.53883,R,ugm-3,22.65452,R,ugm-3,43.10712,R,ugm-3
06-01-2014,13:00,4.79306,R,ugm-3,12.55795,R,ugm-3,19.90721,R,ugm-3,42.55830,R,ugm-3
06-01-2014,14:00,5.38116,R,ugm-3,13.77335,R,ugm-3,22.02435,R,ugm-3,41.61035,R,ugm-3
06-01-2014,15:00,3.99884,R,ugm-3,13.59596,R,ugm-3,19.72744,R,ugm-3,41.56045,R,ugm-3
06-01-2014,16:00,3.82266,R,ugm-3,11.83885,R,ugm-3,17.70019,R,ugm-3,45.65164,R,ugm-3
06-01-2014,17:00,1.99973,R,ugm-3,7.06812,R,ugm-3,10.13434,R,ugm-3,47.39788,R,ugm-3
06-01-2014,18:00,1.32339,R,ugm-3,6.21323,R,ugm-3,8.24240,R,ugm-3,45.10282,R,ugm-3
06-01-2014,19:00,2.20554,R,ugm-3,6.03155,R,ugm-3,9.41333,R,ugm-3,48.74497,R,ugm-3
06-01-2014,20:00,1.35270,R,ugm-3,4.45613,R,ugm-3,6.53023,R,ugm-3,53.83401,R,ugm-3
06-01-2014,21:00,0.91178,R,ugm-3,3.55629,R,ugm-3,4.95433,R,ugm-3,51.33938,R,ugm-3
06-01-2014,22:00,0.26474,R,ugm-3,2.97203,R,ugm-3,3.37795,R,ugm-3,47.14841,R,ugm-3
06-01-2014,23:00,0.31349,R,ugm-3,0.90079,R,ugm-3,1.38146,R,ugm-3,49.19401,R,ugm-3
06-01-2014,24:00,0.26505,R,ugm-3,0.94478,R,ugm-3,1.35118,R,ugm-3,48.99444,R,ugm-3
07-01-2014,01:00,0.35299,R,ugm-3,0.62969,R,ugm-3,1.17093,R,ugm-3,49.14411,R,ugm-3
07-01-2014,02:00,0.31349,R,ugm-3,1.26034,R,ugm-3,1.74101,R,ugm-3,49.16074,R,ugm-3
07-01-2014,03:00,0.35299,R,ugm-3,0.85489,R,ugm-3,1.39613,R,ugm-3,47.49766,R,ugm-3
07-01-2014,04:00,0.88247,R,ugm-3,2.29500,R,ugm-3,3.64809,R,ugm-3,47.64734,R,ugm-3
07-01-2014,05:00,3.76373,R,ugm-3,6.70523,R,ugm-3,12.47619,R,ugm-3,48.79487,R,ugm-3
07-01-2014,06:00,5.52803,R,ugm-3,11.61127,R,ugm-3,20.08747,R,ugm-3,50.54110,R,ugm-3
07-01-2014,07:00,7.26334,R,ugm-3,20.30071,R,ugm-3,31.43768,R,ugm-3,45.65164,R,ugm-3
07-01-2014,08:00,7.35159,R,ugm-3,18.22899,R,ugm-3,29.50127,R,ugm-3,46.05078,R,ugm-3
07-01-2014,09:00,7.64533,R,ugm-3,17.05759,R,ugm-3,28.78026,R,ugm-3,38.51701,R,ugm-3
07-01-2014,10:00,7.02791,R,ugm-3,14.94141,R,ugm-3,25.71739,R,ugm-3,40.91185,R,ugm-3
07-01-2014,11:00,6.93967,R,ugm-3,14.31124,R,ugm-3,24.95191,R,ugm-3,40.76217,R,ugm-3
07-01-2014,12:00,7.11585,R,ugm-3,14.13098,R,ugm-3,25.04180,R,ugm-3,42.35873,R,ugm-3
07-01-2014,13:00,6.64530,R,ugm-3,13.99663,R,ugm-3,24.18595,R,ugm-3,42.70798,R,ugm-3
07-01-2014,14:00,5.23429,R,ugm-3,14.67366,R,ugm-3,22.69946,R,ugm-3,42.55830,R,ugm-3
07-01-2014,15:00,6.43950,R,ugm-3,16.24908,R,ugm-3,26.12284,R,ugm-3,42.00949,R,ugm-3
07-01-2014,16:00,7.88044,R,ugm-3,22.50678,R,ugm-3,34.58995,R,ugm-3,38.06798,R,ugm-3
07-01-2014,17:00,3.76373,R,ugm-3,16.43316,R,ugm-3,22.20413,R,ugm-3,40.91185,R,ugm-3
07-01-2014,18:00,1.91118,R,ugm-3,8.77981,R,ugm-3,11.71024,R,ugm-3,45.50196,R,ugm-3
07-01-2014,19:00,3.79335,R,ugm-3,17.01838,R,ugm-3,22.83477,R,ugm-3,37.21981,R,ugm-3
07-01-2014,20:00,3.23456,R,ugm-3,14.58712,R,ugm-3,19.54671,R,ugm-3,37.81852,R,ugm-3
07-01-2014,21:00,3.88129,R,ugm-3,7.51565,R,ugm-3,13.46687,R,ugm-3,43.70583,R,ugm-3
07-01-2014,22:00,1.91118,R,ugm-3,3.87042,R,ugm-3,6.80085,R,ugm-3,46.30024,R,ugm-3
07-01-2014,23:00,0.32367,R,ugm-3,1.80062,R,ugm-3,2.29691,R,ugm-3,47.59745,R,ugm-3
07-01-2014,24:00,0.79391,R,ugm-3,1.93545,R,ugm-3,3.15276,R,ugm-3,47.24820,R,ugm-3
08-01-2014,01:00,0.41192,R,ugm-3,1.93593,R,ugm-3,2.56753,R,ugm-3,47.59745,R,ugm-3
08-01-2014,02:00,0.47023,R,ugm-3,2.02629,R,ugm-3,2.74731,R,ugm-3,47.04863,R,ugm-3
08-01-2014,03:00,1.97011,R,ugm-3,13.73366,R,ugm-3,16.75446,R,ugm-3,35.47357,R,ugm-3
08-01-2014,04:00,6.46943,R,ugm-3,20.75254,R,ugm-3,30.67220,R,ugm-3,31.43228,R,ugm-3
08-01-2014,05:00,56.51641,R,ugm-3,53.05418,R,ugm-3,139.71147,R,ugm-3,14.86797,R,ugm-3
08-01-2014,06:00,111.03371,R,ugm-3,70.71134,R,ugm-3,240.96066,R,ugm-3,10.67700,R,ugm-3
08-01-2014,07:00,72.51303,R,ugm-3,68.11656,R,ugm-3,179.30166,R,ugm-3,9.87872,R,ugm-3
08-01-2014,08:00,134.64572,R,ugm-3,86.93317,R,ugm-3,293.38706,R,ugm-3,5.38839,R,ugm-3
08-01-2014,09:00,75.45354,R,ugm-3,73.24636,R,ugm-3,188.94018,R,ugm-3,7.48388,R,ugm-3
08-01-2014,10:00,57.36956,R,ugm-3,46.29637,R,ugm-3,134.26180,R,ugm-3,17.01334,R,ugm-3
08-01-2014,11:00,33.31601,R,ugm-3,40.48141,R,ugm-3,91.56524,R,ugm-3,24.29765,R,ugm-3
08-01-2014,12:00,22.28894,R,ugm-3,30.05016,R,ugm-3,64.22605,R,ugm-3,32.62970,R,ugm-3
08-01-2014,13:00,35.52155,R,ugm-3,43.17947,R,ugm-3,97.64508,R,ugm-3,24.89636,R,ugm-3
08-01-2014,14:00,41.13751,R,ugm-3,47.72022,R,ugm-3,110.79686,R,ugm-3,23.59915,R,ugm-3
08-01-2014,15:00,38.10907,R,ugm-3,44.12138,R,ugm-3,102.55447,R,ugm-3,27.69034,R,ugm-3
08-01-2014,16:00,71.71913,R,ugm-3,61.90237,R,ugm-3,171.87016,R,ugm-3,19.70754,R,ugm-3
08-01-2014,17:00,22.46543,R,ugm-3,35.81491,R,ugm-3,70.26143,R,ugm-3,34.47572,R,ugm-3
08-01-2014,18:00,3.32281,R,ugm-3,13.23593,R,ugm-3,18.33083,R,ugm-3,52.93594,R,ugm-3
08-01-2014,19:00,3.08738,R,ugm-3,11.88571,R,ugm-3,16.61963,R,ugm-3,54.73207,R,ugm-3
08-01-2014,20:00,2.38172,R,ugm-3,9.49987,R,ugm-3,13.15178,R,ugm-3,58.52390,R,ugm-3
08-01-2014,21:00,1.49957,R,ugm-3,6.43891,R,ugm-3,8.73821,R,ugm-3,65.30928,R,ugm-3
08-01-2014,22:00,1.38232,R,ugm-3,4.95146,R,ugm-3,7.07099,R,ugm-3,66.40692,R,ugm-3
08-01-2014,23:00,0.64735,R,ugm-3,2.70093,R,ugm-3,3.69352,R,ugm-3,65.60864,R,ugm-3
08-01-2014,24:00,0.64704,R,ugm-3,2.52115,R,ugm-3,3.51326,R,ugm-3,55.58025,R,ugm-3
09-01-2014,01:00,0.58810,R,ugm-3,2.11905,R,ugm-3,3.02079,R,ugm-3,52.58670,R,ugm-3
09-01-2014,02:00,0.82353,R,ugm-3,1.75807,R,ugm-3,3.02079,R,ugm-3,46.49981,R,ugm-3
09-01-2014,03:00,0.85315,R,ugm-3,2.29835,R,ugm-3,3.60650,R,ugm-3,46.44992,R,ugm-3
09-01-2014,04:00,2.82295,R,ugm-3,5.81591,R,ugm-3,10.14438,R,ugm-3,44.70368,R,ugm-3
09-01-2014,05:00,10.85058,R,ugm-3,14.06739,R,ugm-3,30.70471,R,ugm-3,38.66669,R,ugm-3
09-01-2014,06:00,23.25934,R,ugm-3,26.06068,R,ugm-3,61.72450,R,ugm-3,31.48217,R,ugm-3
09-01-2014,07:00,13.52635,R,ugm-3,24.34708,R,ugm-3,45.08719,R,ugm-3,28.73808,R,ugm-3
09-01-2014,08:00,11.29150,R,ugm-3,17.13313,R,ugm-3,34.44652,R,ugm-3,31.08303,R,ugm-3
09-01-2014,09:00,8.08593,R,ugm-3,13.88714,R,ugm-3,26.28540,R,ugm-3,33.87701,R,ugm-3
09-01-2014,10:00,17.49588,R,ugm-3,24.61818,R,ugm-3,51.44482,R,ugm-3,31.78152,R,ugm-3
09-01-2014,11:00,13.58497,R,ugm-3,18.84673,R,ugm-3,39.67673,R,ugm-3,34.37593,R,ugm-3
09-01-2014,12:00,12.67350,R,ugm-3,17.08867,R,ugm-3,36.52110,R,ugm-3,37.51916,R,ugm-3
09-01-2014,13:00,,,,,,,,,,36.67099,R,ugm-3
09-01-2014,14:00,,,,,,,,,,30.48432,R,ugm-3
09-01-2014,15:00,,,,,,,,,,27.69034,R,ugm-3
09-01-2014,16:00,,,,,,,,,,8.93076,R,ugm-3
09-01-2014,17:00,,,,,,,,,,7.23441,R,ugm-3
09-01-2014,18:00,,,,,,,,,,19.90711,R,ugm-3
09-01-2014,19:00,,,,,,,,,,24.59700,R,ugm-3
09-01-2014,20:00,,,,,,,,,,26.94195,R,ugm-3
09-01-2014,21:00,,,,,,,,,,26.84217,R,ugm-3
09-01-2014,22:00,,,,,,,,,,27.64045,R,ugm-3
09-01-2014,23:00,,,,,,,,,,16.26496,R,ugm-3
09-01-2014,24:00,,,,,,,,,,10.32775,R,ugm-3
10-01-2014,01:00,,,,,,,,,,14.71829,R,ugm-3
10-01-2014,02:00,4.07742,R,ugm-3,27.37680,R,ugm-3,33.62876,R,ugm-3,12.50639,R,ugm-3
10-01-2014,03:00,9.11558,R,ugm-3,29.48597,R,ugm-3,43.46300,R,ugm-3,12.87227,R,ugm-3
10-01-2014,04:00,91.59704,R,ugm-3,42.00758,R,ugm-3,182.45441,R,ugm-3,4.14108,R,ugm-3
10-01-2014,05:00,115.70890,R,ugm-3,50.12041,R,ugm-3,227.53825,R,ugm-3,3.49248,R,ugm-3
10-01-2014,06:00,305.63683,R,ugm-3,76.61045,R,ugm-3,545.24706,R,ugm-3,3.79183,R,ugm-3
10-01-2014,07:00,412.43596,R,ugm-3,110.03617,R,ugm-3,742.42915,R,ugm-3,3.79183,R,ugm-3
10-01-2014,08:00,350.77381,R,ugm-3,119.54942,R,ugm-3,657.39510,R,ugm-3,3.79183,R,ugm-3
10-01-2014,09:00,240.50407,R,ugm-3,103.56044,R,ugm-3,472.32821,R,ugm-3,3.99140,R,ugm-3
10-01-2014,10:00,72.27761,R,ugm-3,69.91909,R,ugm-3,180.74320,R,ugm-3,8.43183,R,ugm-3
10-01-2014,11:00,27.58186,R,ugm-3,51.02980,R,ugm-3,93.32139,R,ugm-3,16.96345,R,ugm-3
10-01-2014,12:00,49.07720,R,ugm-3,63.11011,R,ugm-3,138.36077,R,ugm-3,10.72689,R,ugm-3
10-01-2014,13:00,35.08031,R,ugm-3,56.87297,R,ugm-3,110.66203,R,ugm-3,13.67055,R,ugm-3
10-01-2014,14:00,36.10934,R,ugm-3,58.94325,R,ugm-3,114.31013,R,ugm-3,12.62280,R,ugm-3
10-01-2014,15:00,21.28923,R,ugm-3,52.34608,R,ugm-3,84.98911,R,ugm-3,16.71399,R,ugm-3
10-01-2014,16:00,19.61317,R,ugm-3,49.60164,R,ugm-3,79.67475,R,ugm-3,17.81162,R,ugm-3
10-01-2014,17:00,21.67121,R,ugm-3,51.62555,R,ugm-3,84.85428,R,ugm-3,17.31270,R,ugm-3
10-01-2014,18:00,22.46512,R,ugm-3,51.71496,R,ugm-3,86.16099,R,ugm-3,15.76603,R,ugm-3
10-01-2014,19:00,6.88104,R,ugm-3,31.96600,R,ugm-3,42.51679,R,ugm-3,27.34109,R,ugm-3
10-01-2014,20:00,4.99856,R,ugm-3,26.02530,R,ugm-3,33.68964,R,ugm-3,30.28475,R,ugm-3
10-01-2014,21:00,3.52861,R,ugm-3,14.94714,R,ugm-3,20.35761,R,ugm-3,40.56260,R,ugm-3
10-01-2014,22:00,2.11698,R,ugm-3,10.98588,R,ugm-3,14.23187,R,ugm-3,44.75357,R,ugm-3
10-01-2014,23:00,1.47057,R,ugm-3,8.82523,R,ugm-3,11.08007,R,ugm-3,44.35443,R,ugm-3
10-01-2014,24:00,3.32281,R,ugm-3,8.14677,R,ugm-3,13.24167,R,ugm-3,44.40433,R,ugm-3
11-01-2014,01:00,0.88215,R,ugm-3,6.30360,R,ugm-3,7.65622,R,ugm-3,47.94669,R,ugm-3
11-01-2014,02:00,1.26476,R,ugm-3,16.25673,R,ugm-3,18.19600,R,ugm-3,38.41723,R,ugm-3
11-01-2014,03:00,0.70566,R,ugm-3,7.34065,R,ugm-3,8.42265,R,ugm-3,44.15486,R,ugm-3
11-01-2014,04:00,12.32052,R,ugm-3,13.35738,R,ugm-3,32.24858,R,ugm-3,40.46282,R,ugm-3
11-01-2014,05:00,5.49841,R,ugm-3,17.46686,R,ugm-3,25.89764,R,ugm-3,36.47142,R,ugm-3
11-01-2014,06:00,38.75579,R,ugm-3,42.45415,R,ugm-3,101.87888,R,ugm-3,20.35614,R,ugm-3
11-01-2014,07:00,120.11998,R,ugm-3,71.41705,R,ugm-3,255.59845,R,ugm-3,5.03914,R,ugm-3
11-01-2014,08:00,92.18514,R,ugm-3,74.25520,R,ugm-3,215.60378,R,ugm-3,7.38409,R,ugm-3
11-01-2014,09:00,87.50963,R,ugm-3,70.20883,R,ugm-3,204.38840,R,ugm-3,10.92646,R,ugm-3
11-01-2014,10:00,89.97960,R,ugm-3,64.80076,R,ugm-3,202.76755,R,ugm-3,16.31485,R,ugm-3
11-01-2014,11:00,55.92831,R,ugm-3,58.50577,R,ugm-3,144.26131,R,ugm-3,18.46023,R,ugm-3
11-01-2014,12:00,73.65961,R,ugm-3,60.99871,R,ugm-3,173.94188,R,ugm-3,17.61205,R,ugm-3
11-01-2014,13:00,49.37125,R,ugm-3,52.12041,R,ugm-3,127.82194,R,ugm-3,22.60130,R,ugm-3
11-01-2014,14:00,53.95851,R,ugm-3,56.12136,R,ugm-3,138.85658,R,ugm-3,17.16302,R,ugm-3
11-01-2014,15:00,199.95498,R,ugm-3,95.78852,R,ugm-3,402.38187,R,ugm-3,6.73549,R,ugm-3
11-01-2014,16:00,291.43383,R,ugm-3,99.91904,R,ugm-3,546.77801,R,ugm-3,4.59011,R,ugm-3
11-01-2014,17:00,214.39278,R,ugm-3,83.19949,R,ugm-3,411.93051,R,ugm-3,4.59011,R,ugm-3
11-01-2014,18:00,147.14305,R,ugm-3,76.68838,R,ugm-3,302.30457,R,ugm-3,4.24086,R,ugm-3
11-01-2014,19:00,123.58934,R,ugm-3,65.82682,R,ugm-3,255.32783,R,ugm-3,3.89162,R,ugm-3
11-01-2014,20:00,100.85917,R,ugm-3,56.85671,R,ugm-3,211.50529,R,ugm-3,4.09119,R,ugm-3
11-01-2014,21:00,105.85804,R,ugm-3,58.28918,R,ugm-3,220.60257,R,ugm-3,3.74194,R,ugm-3
11-01-2014,22:00,126.38330,R,ugm-3,55.59781,R,ugm-3,249.38283,R,ugm-3,3.89162,R,ugm-3
11-01-2014,23:00,67.74928,R,ugm-3,44.29876,R,ugm-3,148.17954,R,ugm-3,3.34280,R,ugm-3
11-01-2014,24:00,85.92151,R,ugm-3,54.71806,R,ugm-3,186.46253,R,ugm-3,3.34280,R,ugm-3
12-01-2014,01:00,43.13725,R,ugm-3,46.59089,R,ugm-3,112.73375,R,ugm-3,12.92216,R,ugm-3
12-01-2014,02:00,3.82266,R,ugm-3,15.57731,R,ugm-3,21.43865,R,ugm-3,38.76647,R,ugm-3
12-01-2014,03:00,1.85224,R,ugm-3,9.72602,R,ugm-3,12.56608,R,ugm-3,43.60605,R,ugm-3
12-01-2014,04:00,0.79422,R,ugm-3,6.88930,R,ugm-3,8.10709,R,ugm-3,41.21121,R,ugm-3
12-01-2014,05:00,0.97040,R,ugm-3,7.56489,R,ugm-3,9.05282,R,ugm-3,41.21121,R,ugm-3
12-01-2014,06:00,3.55792,R,ugm-3,10.03776,R,ugm-3,15.49316,R,ugm-3,39.51486,R,ugm-3
12-01-2014,07:00,4.52832,R,ugm-3,9.54098,R,ugm-3,16.48432,R,ugm-3,34.87486,R,ugm-3
12-01-2014,08:00,7.82151,R,ugm-3,14.49053,R,ugm-3,26.48334,R,ugm-3,32.18066,R,ugm-3
12-01-2014,09:00,8.11618,R,ugm-3,13.94834,R,ugm-3,26.39298,R,ugm-3,31.53206,R,ugm-3
12-01-2014,10:00,4.32252,R,ugm-3,10.66745,R,ugm-3,17.29522,R,ugm-3,33.12862,R,ugm-3
12-01-2014,11:00,14.20301,R,ugm-3,15.92013,R,ugm-3,37.69777,R,ugm-3,29.13722,R,ugm-3
12-01-2014,12:00,7.52777,R,ugm-3,13.22876,R,ugm-3,24.77118,R,ugm-3,29.48647,R,ugm-3
12-01-2014,13:00,14.29094,R,ugm-3,15.92061,R,ugm-3,37.83308,R,ugm-3,28.78797,R,ugm-3
12-01-2014,14:00,12.93824,R,ugm-3,15.92300,R,ugm-3,35.76136,R,ugm-3,30.88346,R,ugm-3
12-01-2014,15:00,10.17423,R,ugm-3,14.39634,R,ugm-3,29.99661,R,ugm-3,33.22841,R,ugm-3
12-01-2014,16:00,5.29261,R,ugm-3,13.00835,R,ugm-3,21.12356,R,ugm-3,36.77077,R,ugm-3
12-01-2014,17:00,2.85226,R,ugm-3,11.02987,R,ugm-3,15.40328,R,ugm-3,40.51271,R,ugm-3
12-01-2014,18:00,2.76402,R,ugm-3,10.21897,R,ugm-3,14.45707,R,ugm-3,59.07272,R,ugm-3
12-01-2014,19:00,2.44065,R,ugm-3,7.38177,R,ugm-3,11.12406,R,ugm-3,63.21380,R,ugm-3
12-01-2014,20:00,10.02705,R,ugm-3,14.39634,R,ugm-3,29.77093,R,ugm-3,53.08562,R,ugm-3
12-01-2014,21:00,15.43783,R,ugm-3,26.81851,R,ugm-3,50.48952,R,ugm-3,41.80992,R,ugm-3
12-01-2014,22:00,4.85169,R,ugm-3,15.12548,R,ugm-3,22.56463,R,ugm-3,50.89035,R,ugm-3
12-01-2014,23:00,3.11669,R,ugm-3,15.93878,R,ugm-3,20.71763,R,ugm-3,48.94454,R,ugm-3
12-01-2014,24:00,2.76402,R,ugm-3,12.87638,R,ugm-3,17.11448,R,ugm-3,50.14196,R,ugm-3
13-01-2014,01:00,0.97071,R,ugm-3,3.91632,R,ugm-3,5.40473,R,ugm-3,54.83186,R,ugm-3